K0FJ-1 Weather Reports


Display with metric or nautical units.
time (UTC)temp
F
wind
direction
speed
MPH
gust
MPH
rain 1hr
in
rain 24hr
in
rain mn
in
humidity
%
barometer
mb
20260905005503 94 158 4.0 10.0 0.00 0.00 0.00 38 1012.8
20260905005003 94 151 3.0 9.0 0.00 0.00 0.00 38 1012.8
20260905004503 94 157 4.0 12.0 0.00 0.00 0.00 37 1012.8
20260905004003 94 162 4.0 12.0 0.00 0.00 0.00 38 1012.7
20260905003503 94 164 3.0 13.0 0.00 0.00 0.00 38 1012.8
20260905003003 94 168 3.0 13.0 0.00 0.00 0.00 38 1012.7
20260905002503 94 167 4.0 12.0 0.00 0.00 0.00 38 1012.7
20260905002003 94 163 3.0 11.0 0.00 0.00 0.00 37 1012.7
20260905001503 94 164 3.0 11.0 0.00 0.00 0.00 37 1012.7
20260905001003 94 161 2.0 11.0 0.00 0.00 0.00 36 1012.6
20260905000503 95 148 1.0 5.0 0.00 0.00 0.00 35 1012.6
20260905000003 95 161 1.0 5.0 0.00 0.00 0.00 35 1012.5
20260904235503 95 165 1.0 5.0 0.00 0.00 0.00 35 1012.6
20260904235003 95 168 1.0 7.0 0.00 0.00 0.00 34 1012.6
20260904234503 96 167 1.0 7.0 0.00 0.00 0.00 35 1012.6
20260904234003 96 163 0.0 5.0 0.00 0.00 0.00 35 1012.6
20260904233503 96 175 0.0 2.0 0.00 0.00 0.00 36 1012.5
20260904233003 96 178 0.0 6.0 0.00 0.00 0.00 34 1012.6
20260904232503 96 168 1.0 6.0 0.00 0.00 0.00 35 1012.5
20260904232003 97 167 1.0 6.0 0.00 0.00 0.00 34 1012.4
20260904231503 97 174 2.0 7.0 0.00 0.00 0.00 34 1012.4
20260904231003 97 175 3.0 7.0 0.00 0.00 0.00 34 1012.4
20260904230503 97 173 4.0 10.0 0.00 0.00 0.00 34 1012.4
20260904230003 97 175 5.0 11.0 0.00 0.00 0.00 33 1012.3
20260904225503 97 177 6.0 11.0 0.00 0.00 0.00 32 1012.3
20260904225003 97 173 6.0 14.0 0.00 0.00 0.00 32 1012.4
20260904224503 98 169 6.0 15.0 0.00 0.00 0.00 31 1012.3
20260904224003 98 171 7.0 15.0 0.00 0.00 0.00 31 1012.3
20260904223503 99 168 6.0 17.0 0.00 0.00 0.00 30 1012.4
20260904223003 99 164 6.0 17.0 0.00 0.00 0.00 30 1012.4
20260904222503 100 163 5.0 15.0 0.00 0.00 0.00 30 1012.3
20260904222003 100 167 6.0 17.0 0.00 0.00 0.00 30 1012.4
20260904221503 100 167 6.0 17.0 0.00 0.00 0.00 31 1012.4
20260904221003 100 159 6.0 16.0 0.00 0.00 0.00 31 1012.3
20260904220503 100 165 6.0 16.0 0.00 0.00 0.00 31 1012.3
20260904220003 100 175 8.0 21.0 0.00 0.00 0.00 31 1012.4
20260904215503 100 175 9.0 21.0 0.00 0.00 0.00 30 1012.4
20260904215003 100 171 8.0 17.0 0.00 0.00 0.00 30 1012.3
20260904214503 101 170 8.0 18.0 0.00 0.00 0.00 31 1012.3
20260904214003 101 161 6.0 18.0 0.00 0.00 0.00 31 1012.3
20260904213503 100 156 5.0 13.0 0.00 0.00 0.00 32 1012.4
20260904213003 100 160 5.0 13.0 0.00 0.00 0.00 32 1012.4
20260904212503 99 162 6.0 17.0 0.00 0.00 0.00 33 1012.5
20260904212003 99 167 7.0 17.0 0.00 0.00 0.00 32 1012.5
20260904211503 98 165 5.0 17.0 0.00 0.00 0.00 33 1012.5
20260904211003 97 159 4.0 11.0 0.00 0.00 0.00 36 1012.6
20260904210503 96 158 4.0 11.0 0.00 0.00 0.00 35 1012.6
20260904210003 96 163 5.0 13.0 0.00 0.00 0.00 36 1012.6
20260904205503 97 158 5.0 13.0 0.00 0.00 0.00 34 1012.7
20260904205003 98 152 4.0 11.0 0.00 0.00 0.00 34 1012.8
20260904204503 99 167 4.0 13.0 0.00 0.00 0.00 34 1012.8
20260904204003 99 160 4.0 13.0 0.00 0.00 0.00 34 1012.9
20260904203503 98 144 3.0 14.0 0.00 0.00 0.00 36 1012.9
20260904203003 98 155 5.0 16.0 0.00 0.00 0.00 36 1013.0
20260904202503 98 155 5.0 16.0 0.00 0.00 0.00 37 1013.0
20260904202003 98 151 3.0 12.0 0.00 0.00 0.00 37 1013.0
20260904201503 97 142 3.0 11.0 0.00 0.00 0.00 37 1013.0
20260904201003 97 142 4.0 13.0 0.00 0.00 0.00 38 1013.0
20260904200503 96 156 5.0 18.0 0.00 0.00 0.00 39 1013.2
20260904200003 96 165 5.0 18.0 0.00 0.00 0.00 38 1013.2
20260904195503 96 169 4.0 12.0 0.00 0.00 0.00 36 1013.1
20260904195003 96 174 4.0 12.0 0.00 0.00 0.00 36 1013.0
20260904194503 96 181 5.0 10.0 0.00 0.00 0.00 37 1013.0
20260904194003 95 172 4.0 13.0 0.00 0.00 0.00 35 1013.0
20260904193503 94 162 2.0 13.0 0.00 0.00 0.00 38 1013.1
20260904193003 93 166 1.0 4.0 0.00 0.00 0.00 39 1013.1
20260904192503 93 181 0.0 2.0 0.00 0.00 0.00 41 1013.1
20260904192003 92 183 1.0 4.0 0.00 0.00 0.00 41 1013.1
20260904191503 92 204 1.0 4.0 0.00 0.00 0.00 40 1013.3
20260904191003 91 287 1.0 4.0 0.00 0.00 0.00 40 1013.4
20260904190503 90 311 0.0 3.0 0.00 0.00 0.00 44 1013.6
20260904190003 90 286 0.0 3.0 0.00 0.00 0.00 43 1013.6
20260904185503 90 247 0.0 3.0 0.00 0.00 0.00 44 1013.7
20260904185003 89 226 1.0 5.0 0.00 0.00 0.00 43 1013.7
20260904184503 89 208 2.0 5.0 0.00 0.00 0.00 44 1013.7
20260904184003 89 203 2.0 7.0 0.00 0.00 0.00 44 1013.7
20260904183503 89 202 2.0 7.0 0.00 0.00 0.00 42 1013.9
20260904183003 89 183 3.0 10.0 0.00 0.00 0.00 42 1013.9
20260904182503 90 175 4.0 10.0 0.00 0.00 0.00 43 1014.0
20260904182003 90 178 3.0 10.0 0.00 0.00 0.00 42 1014.0
20260904181503 90 204 2.0 7.0 0.00 0.00 0.00 37 1014.0
20260904181003 91 200 3.0 8.0 0.00 0.00 0.00 37 1014.2
20260904180503 91 186 3.0 8.0 0.00 0.00 0.00 36 1014.2
20260904180003 92 173 3.0 10.0 0.00 0.00 0.00 36 1014.1
20260904175503 92 173 3.0 11.0 0.00 0.00 0.00 35 1014.0
20260904175003 92 176 4.0 11.0 0.00 0.00 0.00 35 1014.0
20260904174503 92 177 4.0 12.0 0.00 0.00 0.00 35 1014.0
20260904174003 92 184 5.0 12.0 0.00 0.00 0.00 35 1014.0
20260904173503 92 188 5.0 13.0 0.00 0.00 0.00 36 1014.0
20260904173003 92 184 6.0 13.0 0.00 0.00 0.00 35 1014.0
20260904172503 92 188 6.0 11.0 0.00 0.00 0.00 36 1014.1
20260904172003 92 197 4.0 14.0 0.00 0.00 0.00 38 1014.0
20260904171503 91 190 4.0 14.0 0.00 0.00 0.00 39 1014.1
20260904171003 90 193 4.0 10.0 0.00 0.00 0.00 43 1014.0
20260904170503 90 192 5.0 10.0 0.00 0.00 0.00 42 1014.0
20260904170003 89 194 5.0 10.0 0.00 0.00 0.00 43 1014.0
20260904165503 89 200 6.0 13.0 0.00 0.00 0.00 44 1014.1
20260904165003 88 200 6.0 13.0 0.00 0.00 0.00 45 1014.1
20260904164503 88 194 6.0 14.0 0.00 0.00 0.00 45 1014.0
20260904164003 88 188 6.0 14.0 0.00 0.00 0.00 45 1014.2
20260904163503 88 204 5.0 13.0 0.00 0.00 0.00 44 1014.2
20260904163003 88 214 6.0 12.0 0.00 0.00 0.00 45 1014.2
20260904162503 87 205 7.0 18.0 0.00 0.00 0.00 45 1014.3
20260904162003 87 196 7.0 18.0 0.00 0.00 0.00 46 1014.3
20260904161503 86 195 7.0 13.0 0.00 0.00 0.00 46 1014.2
20260904161003 86 197 6.0 14.0 0.00 0.00 0.00 48 1014.2
20260904160503 86 199 6.0 14.0 0.00 0.00 0.00 48 1014.1
20260904160003 85 210 6.0 12.0 0.00 0.00 0.00 49 1014.0
20260904155503 85 210 6.0 12.0 0.00 0.00 0.00 49 1013.9
20260904155003 84 197 6.0 14.0 0.00 0.00 0.00 50 1013.9
20260904154503 84 190 8.0 16.0 0.00 0.00 0.00 50 1013.8
20260904154003 83 191 7.0 16.0 0.00 0.00 0.00 50 1013.7
20260904153503 83 186 6.0 14.0 0.00 0.00 0.00 51 1013.5
20260904153003 82 183 6.0 17.0 0.00 0.00 0.00 53 1013.6
20260904152503 82 192 7.0 17.0 0.00 0.00 0.00 54 1013.6
20260904152003 81 195 7.0 16.0 0.00 0.00 0.00 55 1013.5
20260904151503 80 189 6.0 16.0 0.00 0.00 0.00 56 1013.5
20260904151003 80 184 6.0 17.0 0.00 0.00 0.00 56 1013.6
20260904150503 80 184 6.0 17.0 0.00 0.00 0.00 56 1013.5
20260904150003 80 184 6.0 16.0 0.00 0.00 0.00 56 1013.5
20260904145503 80 180 7.0 15.0 0.00 0.00 0.00 56 1013.6
20260904145003 81 178 7.0 15.0 0.00 0.00 0.00 55 1013.5
20260904144503 81 180 8.0 17.0 0.00 0.00 0.00 55 1013.4
20260904144003 80 182 7.0 17.0 0.00 0.00 0.00 56 1013.4
20260904143503 80 184 7.0 16.0 0.00 0.00 0.00 58 1013.4
20260904143003 79 183 8.0 16.0 0.00 0.00 0.00 60 1013.4
20260904142503 78 178 7.0 18.0 0.00 0.00 0.00 61 1013.4
20260904142003 77 176 7.0 18.0 0.00 0.00 0.00 62 1013.4
20260904141503 77 176 6.0 18.0 0.00 0.00 0.00 62 1013.5
20260904141003 77 175 6.0 18.0 0.00 0.00 0.00 62 1013.5
20260904140503 77 176 6.0 13.0 0.00 0.00 0.00 63 1013.5
20260904140003 76 179 6.0 13.0 0.00 0.00 0.00 64 1013.5
20260904135503 76 177 7.0 16.0 0.00 0.00 0.00 65 1013.4
20260904135003 76 173 7.0 16.0 0.00 0.00 0.00 65 1013.4
20260904134503 75 169 6.0 16.0 0.00 0.00 0.00 65 1013.3
20260904134003 75 170 5.0 14.0 0.00 0.00 0.00 66 1013.3
20260904133503 75 170 6.0 14.0 0.00 0.00 0.00 66 1013.3
20260904133003 75 171 6.0 14.0 0.00 0.00 0.00 66 1013.2
20260904132503 75 171 5.0 13.0 0.00 0.00 0.00 66 1013.2
20260904132003 75 167 5.0 11.0 0.00 0.00 0.00 66 1013.1
20260904131503 74 169 5.0 14.0 0.00 0.00 0.00 66 1013.1
20260904131003 74 170 5.0 14.0 0.00 0.00 0.00 66 1013.1
20260904130503 74 168 5.0 13.0 0.00 0.00 0.00 66 1013.1
20260904130003 74 171 5.0 12.0 0.00 0.00 0.00 66 1013.1
20260904125503 75 173 5.0 14.0 0.00 0.00 0.00 65 1013.1
20260904125003 75 173 5.0 14.0 0.00 0.00 0.00 65 1013.1
20260904124503 75 173 5.0 13.0 0.00 0.00 0.00 65 1013.1
20260904124003 75 166 4.0 12.0 0.00 0.00 0.00 65 1013.0
20260904123503 75 164 4.0 10.0 0.00 0.00 0.00 64 1013.1
20260904123003 75 168 5.0 12.0 0.00 0.00 0.00 64 1013.1
20260904122503 75 169 5.0 12.0 0.00 0.00 0.00 63 1013.1
20260904122003 75 169 6.0 15.0 0.00 0.00 0.00 63 1012.9
20260904121503 76 168 7.0 15.0 0.00 0.00 0.00 62 1012.9
20260904121003 75 168 6.0 18.0 0.00 0.00 0.00 62 1012.8
20260904120503 75 169 6.0 18.0 0.00 0.00 0.00 62 1012.8
20260904120003 75 168 4.0 10.0 0.00 0.00 0.00 63 1012.7
20260904115503 75 169 3.0 8.0 0.00 0.00 0.00 63 1012.7
20260904115003 75 168 3.0 10.0 0.00 0.00 0.00 63 1012.9
20260904114503 75 172 4.0 12.0 0.00 0.00 0.00 63 1012.9
20260904114003 75 175 4.0 12.0 0.00 0.00 0.00 63 1012.9
20260904113503 75 180 4.0 10.0 0.00 0.00 0.00 62 1012.8
20260904113003 75 182 5.0 12.0 0.00 0.00 0.00 62 1012.9
20260904112503 75 179 5.0 12.0 0.00 0.00 0.00 62 1013.0
20260904112003 75 178 6.0 14.0 0.00 0.00 0.00 62 1012.9
20260904111503 75 177 5.0 14.0 0.00 0.00 0.00 61 1013.0
20260904111003 75 175 4.0 12.0 0.00 0.00 0.00 61 1012.9
20260904110503 75 179 4.0 12.0 0.00 0.00 0.00 61 1012.8
20260904110003 75 181 5.0 12.0 0.00 0.00 0.00 61 1012.8
20260904105503 75 178 4.0 10.0 0.00 0.00 0.00 61 1012.9
20260904105003 75 176 5.0 15.0 0.00 0.00 0.00 61 1012.9
20260904104503 75 175 5.0 15.0 0.00 0.00 0.00 60 1012.8
20260904104003 75 174 4.0 9.0 0.00 0.00 0.00 60 1012.8
20260904103503 75 171 5.0 12.0 0.00 0.00 0.00 60 1012.8
20260904103003 75 167 5.0 12.0 0.00 0.00 0.00 60 1012.8
20260904102503 75 168 5.0 14.0 0.00 0.00 0.00 59 1012.8
20260904102003 76 170 4.0 14.0 0.00 0.00 0.00 59 1012.9
20260904101503 76 165 4.0 10.0 0.00 0.00 0.00 59 1012.8
20260904101003 76 169 5.0 11.0 0.00 0.00 0.00 58 1012.9
20260904100503 76 176 5.0 11.0 0.00 0.00 0.00 58 1012.8
20260904100003 76 177 6.0 12.0 0.00 0.00 0.00 58 1012.8
20260904095503 76 173 5.0 12.0 0.00 0.00 0.00 57 1012.8
20260904095003 77 173 4.0 11.0 0.00 0.00 0.00 57 1012.8
20260904094503 77 176 4.0 11.0 0.00 0.00 0.00 57 1012.7
20260904094003 76 174 4.0 10.0 0.00 0.00 0.00 57 1012.7
20260904093503 76 176 5.0 10.0 0.00 0.00 0.00 58 1012.7
20260904093003 76 178 4.0 9.0 0.00 0.00 0.00 58 1012.7
20260904092503 76 175 3.0 8.0 0.00 0.00 0.00 58 1012.7
20260904092003 76 168 2.0 7.0 0.00 0.00 0.00 58 1012.8
20260904091503 76 172 2.0 6.0 0.00 0.00 0.00 58 1012.8
20260904091003 76 177 3.0 9.0 0.00 0.00 0.00 58 1012.8
20260904090503 76 178 4.0 9.0 0.00 0.00 0.00 58 1012.7
20260904090003 77 177 4.0 9.0 0.00 0.00 0.00 58 1012.7
20260904085503 77 177 4.0 9.0 0.00 0.00 0.00 57 1012.7
20260904085003 77 176 5.0 11.0 0.00 0.00 0.00 57 1012.7
20260904084503 77 175 5.0 11.0 0.00 0.00 0.00 57 1012.8
20260904084003 77 178 6.0 11.0 0.00 0.00 0.00 57 1012.8
20260904083503 77 179 6.0 11.0 0.00 0.00 0.00 56 1012.9
20260904083003 77 179 5.0 12.0 0.00 0.00 0.00 56 1012.9
20260904082503 78 177 5.0 15.0 0.00 0.00 0.00 56 1012.8
20260904082003 78 176 6.0 16.0 0.00 0.00 0.00 56 1012.8
20260904081503 78 176 7.0 16.0 0.00 0.00 0.00 56 1012.8
20260904081003 77 172 6.0 13.0 0.00 0.00 0.00 57 1012.9
20260904080503 77 173 7.0 12.0 0.00 0.00 0.00 57 1012.8
20260904080003 77 177 7.0 13.0 0.00 0.00 0.00 59 1012.8
20260904075503 76 176 6.0 13.0 0.00 0.00 0.00 60 1012.9
20260904075003 76 175 5.0 13.0 0.00 0.00 0.00 61 1012.9
20260904074503 76 173 4.0 13.0 0.00 0.00 0.00 61 1012.9
20260904074003 75 168 3.0 8.0 0.00 0.00 0.00 62 1012.8
20260904073503 75 168 2.0 7.0 0.00 0.00 0.00 63 1013.0
20260904073003 75 166 2.0 7.0 0.00 0.00 0.00 64 1012.9
20260904072503 75 158 1.0 6.0 0.00 0.00 0.00 64 1013.0
20260904072003 74 167 1.0 6.0 0.00 0.00 0.00 66 1013.1
20260904071503 74 164 0.0 4.0 0.00 0.00 0.00 67 1013.1
20260904071003 74 152 0.0 1.0 0.00 0.00 0.00 68 1013.1
20260904070503 73 152 0.0 2.0 0.00 0.00 0.00 68 1013.2
20260904070003 73 169 0.0 2.0 0.00 0.00 0.00 69 1013.2
20260904065503 73 187 0.0 2.0 0.00 0.00 0.00 69 1013.3
20260904065003 73 0 0.0 0.0 0.00 0.00 0.00 70 1013.2
20260904064503 73 0 0.0 0.0 0.00 0.00 0.00 69 1013.2
20260904064003 73 0 0.0 0.0 0.00 0.00 0.00 69 1013.2
20260904063503 73 0 0.0 0.0 0.00 0.00 0.00 69 1013.3
20260904063003 73 0 0.0 0.0 0.00 0.00 0.00 68 1013.3
20260904062503 73 0 0.0 0.0 0.00 0.00 0.00 68 1013.3
20260904062003 74 0 0.0 0.0 0.00 0.00 0.00 68 1013.4
20260904061503 74 0 0.0 0.0 0.00 0.00 0.00 67 1013.5
20260904061003 74 0 0.0 0.0 0.00 0.00 0.00 67 1013.4
20260904060503 73 0 0.0 0.0 0.00 0.00 0.00 68 1013.5
20260904060003 73 0 0.0 0.0 0.00 0.00 0.00 68 1013.5
20260904055503 73 0 0.0 0.0 0.00 0.00 0.00 68 1013.4
20260904055003 72 0 0.0 0.0 0.00 0.00 0.00 69 1013.4
20260904054503 72 0 0.0 0.0 0.00 0.00 0.00 68 1013.6
20260904054003 72 0 0.0 0.0 0.00 0.00 0.00 68 1013.5
20260904053503 72 0 0.0 0.0 0.00 0.00 0.00 67 1013.4
20260904053003 73 0 0.0 0.0 0.00 0.00 0.00 67 1013.3
20260904052503 73 0 0.0 0.0 0.00 0.00 0.00 67 1013.4
20260904052003 73 0 0.0 0.0 0.00 0.00 0.00 67 1013.3
20260904051503 73 0 0.0 0.0 0.00 0.00 0.00 66 1013.3
20260904051003 73 0 0.0 0.0 0.00 0.00 0.00 66 1013.3
20260904050503 73 0 0.0 0.0 0.00 0.00 0.00 66 1013.3
20260904050004 73 0 0.0 0.0 0.00 0.00 0.00 66 1013.3
20260904045503 74 0 0.0 0.0 0.00 0.00 0.00 65 1013.3
20260904045003 74 0 0.0 0.0 0.00 0.00 0.00 65 1013.3
20260904044503 74 0 0.0 0.0 0.00 0.00 0.00 64 1013.2
20260904044003 74 0 0.0 0.0 0.00 0.00 0.00 64 1013.2
20260904043503 74 0 0.0 0.0 0.00 0.00 0.00 64 1013.2
20260904043003 74 0 0.0 0.0 0.00 0.00 0.00 62 1013.3
20260904042503 75 0 0.0 0.0 0.00 0.00 0.00 62 1013.3
20260904042003 75 0 0.0 0.0 0.00 0.00 0.00 62 1013.2
20260904041503 75 0 0.0 0.0 0.00 0.00 0.00 61 1013.2
20260904041003 75 0 0.0 0.0 0.00 0.00 0.00 61 1013.2
20260904040503 75 0 0.0 0.0 0.00 0.00 0.00 60 1013.1
20260904040003 76 0 0.0 0.0 0.00 0.00 0.00 60 1013.3
20260904035503 76 0 0.0 0.0 0.00 0.00 0.00 59 1013.3
20260904035003 76 0 0.0 0.0 0.00 0.00 0.00 59 1013.4
20260904034503 76 0 0.0 0.0 0.00 0.00 0.00 58 1013.5
20260904034003 77 0 0.0 0.0 0.00 0.00 0.00 58 1013.6
20260904033503 77 0 0.0 0.0 0.00 0.00 0.00 58 1013.6
20260904033003 77 0 0.0 0.0 0.00 0.00 0.00 58 1013.5
20260904032503 77 0 0.0 0.0 0.00 0.00 0.00 58 1013.4
20260904032003 77 0 0.0 0.0 0.00 0.00 0.00 57 1013.4
20260904031503 77 0 0.0 0.0 0.00 0.00 0.00 56 1013.4
20260904031003 77 0 0.0 0.0 0.00 0.00 0.00 56 1013.4
20260904030503 78 0 0.0 0.0 0.00 0.00 0.00 55 1013.3
20260904030003 78 0 0.0 0.0 0.00 0.00 0.00 55 1013.2
20260904025503 78 0 0.0 0.0 0.00 0.00 0.00 55 1013.1
20260904025003 78 0 0.0 0.0 0.00 0.00 0.00 54 1013.1
20260904024503 78 0 0.0 0.0 0.00 0.00 0.00 54 1013.0
20260904024003 79 0 0.0 0.0 0.00 0.00 0.00 54 1012.9
20260904023504 79 0 0.0 0.0 0.00 0.00 0.00 53 1012.9
20260904023003 79 0 0.0 0.0 0.00 0.00 0.00 53 1012.9
20260904022503 80 0 0.0 0.0 0.00 0.00 0.00 53 1012.9
20260904022003 80 0 0.0 0.0 0.00 0.00 0.00 53 1012.8
20260904021503 80 0 0.0 0.0 0.00 0.00 0.00 53 1012.8
20260904021003 81 0 0.0 0.0 0.00 0.00 0.00 52 1012.7
20260904020503 81 0 0.0 0.0 0.00 0.00 0.00 52 1012.7
20260904020003 81 0 0.0 0.0 0.00 0.00 0.00 51 1012.5
20260904015503 82 0 0.0 0.0 0.00 0.00 0.00 51 1012.4
20260904015003 82 0 0.0 0.0 0.00 0.00 0.00 51 1012.4
20260904014503 83 0 0.0 0.0 0.00 0.00 0.00 50 1012.3
20260904014003 83 0 0.0 0.0 0.00 0.00 0.00 50 1012.3
20260904013503 84 0 0.0 0.0 0.00 0.00 0.00 49 1012.2
20260904013003 84 0 0.0 0.0 0.00 0.00 0.00 48 1012.1
20260904012503 85 17 0.0 2.0 0.00 0.00 0.00 47 1012.1
20260904012003 85 17 0.0 2.0 0.00 0.00 0.00 47 1012.0
20260904011503 86 17 0.0 1.0 0.00 0.00 0.00 46 1012.0
20260904011003 87 0 0.0 0.0 0.00 0.00 0.00 44 1012.1
20260904010503 88 0 0.0 0.0 0.00 0.00 0.00 43 1012.0
20260904010003 88 17 0.0 1.0 0.00 0.00 0.00 42 1012.0